Left ArrowRight Arrow

39.51506, -84.39828

Hourly Observations for June 14, 2024

Temp ( °F °C ) Dew Point ( °F °C ) Humidity (%) Winds ( mph kmh ) Pressure ( in mb ) Visibility ( mi km ) Precip ( " mm )
12:15 am 00:15 Clear 70 21 62 16.8 77 77 WNW 8 13 29.95 1014 10 16 0.00 0.00
12:35 am 00:35 Clear 74 23.2 58 14.4 58 58 W 7 11 29.94 1014 10 16 0.00 0.00
12:55 am 00:55 Partly Cloudy with Light Rain 75 23.9 57 14 54 54 WNW 13 20 29.95 1014 10 16 0.00 0.00
1:15 am 01:15 Partly Cloudy with Light Rain 70 20.9 56 13.4 62 62 WNW 9 15 29.96 1015 10 16 0.00 0.00
1:35 am 01:35 Mostly Cloudy with Light Rain 67 19.7 57 14.1 70 70 W 3 6 29.95 1014 10 16 0.01 0.25
1:55 am 01:55 Mostly Cloudy with Light Rain 68 19.8 60 15.4 76 76 SW 14 22 29.90 1012 10 16 0.03 0.76
2:15 am 02:15 Partly Cloudy 68 19.9 61 16 78 78 SW 9 15 29.93 1013 10 16 0.00 0.00
2:35 am 02:35 Partly Cloudy with Light Rain 68 20.2 61 16.3 78 78 W 16 26 29.94 1014 10 16 0.00 0.00
2:55 am 02:55 Mostly Cloudy with Light Rain 68 20.1 60 15.3 74 74 W 15 24 29.94 1014 10 16 0.01 0.25
3:15 am 03:15 Partly Cloudy with Nearby Thunderstorms 68 19.8 60 15.3 75 75 W 15 24 29.94 1014 10 16 0.01 0.25
3:35 am 03:35 Mostly Cloudy with Rain 67 19.2 62 16.8 86 86 W 10 17 29.94 1014 10 16 0.03 0.76
3:55 am 03:55 Partly Cloudy with Rain 67 19.2 63 17.1 88 88 SW 10 17 29.91 1013 10 16 0.06 1.52
4:15 am 04:15 Partly Cloudy with Light Rain 66 18.9 66 19 N/A SSW 6 9 29.87 1011 10 16 0.02 0.51
4:35 am 04:35 Partly Cloudy with Light Rain 65 18.5 N/A N/A WSW 6 9 29.89 1012 10 16 0.03 0.76
4:55 am 04:55 Mostly Cloudy with Light Rain 66 19 N/A N/A SW 6 9 29.89 1012 10 16 0.03 0.76
5:15 am 05:15 Mostly Cloudy 66 19.1 N/A N/A W 7 11 29.91 1013 10 16 0.00 0.00
5:35 am 05:35 Mostly Cloudy 67 19.5 66 19 97 97 S 6 9 29.92 1013 10 16 0.00 0.00
5:55 am 05:55 Partly Cloudy 67 19.2 N/A N/A N 7 11 29.92 1013 10 16 0.00 0.00
6:15 am 06:15 Mostly Cloudy 67 19.4 N/A N/A Calm 29.93 1013 10 16 0.00 0.00
6:35 am 06:35 Mostly Cloudy with Light Rain 67 19.5 N/A N/A S 3 6 29.92 1013 10 16 0.01 0.25
6:55 am 06:55 Mostly Cloudy 67 19.4 N/A N/A N 3 6 29.94 1014 10 16 0.01 0.25
7:15 am 07:15 Cloudy 67 19.4 N/A N/A NE 3 6 29.94 1014 10 16 0.00 0.00
7:35 am 07:35 Cloudy 67 19.6 N/A N/A E 5 7 29.94 1014 7 11 0.00 0.00
7:55 am 07:55 Cloudy 68 19.8 N/A N/A Calm 29.95 1014 10 16 0.00 0.00
8:15 am 08:15 Mostly Cloudy 68 20.2 N/A N/A ENE 3 6 29.95 1014 10 16 0.00 0.00
8:35 am 08:35 Cloudy 69 20.8 N/A N/A ENE 5 7 29.95 1014 10 16 0.00 0.00
8:55 am 08:55 Mostly Cloudy 70 21.1 69 20.8 98 98 E 7 11 29.95 1014 10 16 0.00 0.00
9:15 am 09:15 Partly Cloudy 72 22.2 69 20.6 91 91 E 7 11 29.95 1014 10 16 0.00 0.00
9:35 am 09:35 Mostly Cloudy 72 22.3 68 19.9 86 86 E 7 11 29.95 1014 10 16 0.00 0.00
9:55 am 09:55 Mostly Cloudy 74 23.4 66 19 76 76 E 5 7 29.95 1014 10 16 0.00 0.00
10:15 am 10:15 Partly Cloudy 75 24 64 17.5 67 67 ENE 3 6 29.95 1014 10 16 0.00 0.00
10:35 am 10:35 Partly Cloudy 76 24.5 64 17.7 66 66 E 6 9 29.93 1014 10 16 0.00 0.00
10:55 am 10:55 Partly Cloudy 77 24.9 63 17.4 63 63 NNE 3 6 29.93 1014 10 16 0.00 0.00
11:15 am 11:15 Partly Cloudy 78 25.7 62 16.9 58 58 N 5 7 29.93 1014 10 16 0.00 0.00
11:35 am 11:35 Mostly Cloudy 79 25.9 61 16.3 55 55 W 3 6 29.93 1014 10 16 0.00 0.00
11:55 am 11:55 Cloudy 78 25.8 63 17.3 59 59 N 5 7 29.93 1014 10 16 0.00 0.00
12:15 pm 12:15 Mostly Cloudy 78 25.8 63 17.2 59 59 Calm 29.93 1014 10 16 0.00 0.00
12:35 pm 12:35 Partly Cloudy 80 26.6 64 17.5 57 57 Calm 29.93 1014 10 16 0.00 0.00
12:55 pm 12:55 Mostly Cloudy with Haze 82 27.6 65 18.1 56 56 ESE 3 6 29.93 1013 7 11 0.00 0.00
1:15 pm 13:15 Cloudy 82 27.6 64 17.9 56 56 NE 5 7 29.92 1013 10 16 0.00 0.00
1:35 pm 13:35 Mostly Cloudy 83 28.2 64 17.6 53 53 N 7 11 29.92 1013 7 11 0.00 0.00
1:55 pm 13:55 Cloudy 82 27.7 64 17.7 55 55 NNE 3 6 29.92 1013 10 16 0.00 0.00
2:15 pm 14:15 Mostly Cloudy 84 28.9 66 18.9 55 55 N 6 9 29.91 1013 10 16 0.00 0.00
2:35 pm 14:35 Mostly Cloudy 83 28.1 65 18.2 55 55 Calm 29.92 1013 10 16 0.00 0.00
2:55 pm 14:55 Mostly Cloudy 84 29 66 19 55 55 Calm 29.91 1013 10 16 0.00 0.00
3:15 pm 15:15 Partly Cloudy 83 28.4 66 18.8 56 56 W 5 7 29.91 1013 10 16 0.00 0.00
3:35 pm 15:35 Partly Cloudy 83 28.6 65 18.6 55 55 NE 3 6 29.91 1013 10 16 0.00 0.00
3:55 pm 15:55 Partly Cloudy 84 29.1 64 17.9 51 51 WSW 5 7 29.89 1012 10 16 0.00 0.00
4:15 pm 16:15 Partly Cloudy 86 30.1 65 18.3 49 49 NE 6 9 29.89 1012 10 16 0.00 0.00
4:35 pm 16:35 Partly Cloudy 87 30.4 64 18 48 48 N 5 7 29.89 1012 10 16 0.00 0.00
4:55 pm 16:55 Partly Cloudy 87 30.6 63 17.4 45 45 NNW 7 11 29.88 1012 10 16 0.00 0.00
5:15 pm 17:15 Partly Cloudy 87 30.5 62 16.4 43 43 NNE 6 9 29.88 1012 10 16 0.00 0.00
5:35 pm 17:35 Partly Cloudy 85 29.7 62 16.4 45 45 NW 7 11 29.88 1012 10 16 0.00 0.00
5:55 pm 17:55 Partly Cloudy 87 30.5 61 16 42 42 N 8 13 29.88 1012 10 16 0.00 0.00
6:15 pm 18:15 Sunny 86 29.9 60 15.3 41 41 N 10 17 29.88 1012 10 16 0.00 0.00
6:35 pm 18:35 Sunny 83 28.6 60 15.5 45 45 N 7 11 29.89 1012 10 16 0.00 0.00
6:55 pm 18:55 Sunny 85 29.7 60 15.6 42 42 NNW 10 17 29.88 1012 10 16 0.00 0.00
7:15 pm 19:15 Sunny 85 29.5 57 14.1 39 39 NNW 7 11 29.89 1012 10 16 0.00 0.00
7:35 pm 19:35 Sunny 84 29.1 58 14.6 41 41 NNW 7 11 29.89 1012 10 16 0.00 0.00
7:55 pm 19:55 Partly Cloudy 82 27.8 59 14.9 45 45 NNW 7 11 29.91 1013 10 16 0.00 0.00
8:15 pm 20:15 Partly Cloudy 79 25.9 64 17.6 60 60 NW 5 7 29.91 1013 10 16 0.00 0.00
8:35 pm 20:35 Partly Cloudy 78 25.7 64 17.8 62 62 NNW 7 11 29.92 1013 10 16 0.00 0.00
8:55 pm 20:55 Partly Cloudy 78 25.5 61 16.1 56 56 N 7 11 29.92 1013 10 16 0.00 0.00
9:15 pm 21:15 Mostly Cloudy 78 25.4 60 15.8 55 55 N 5 7 29.93 1014 10 16 0.00 0.00
9:35 pm 21:35 Mostly Cloudy 76 24.4 60 15.6 58 58 NE 3 6 29.94 1014 10 16 0.00 0.00
9:55 pm 21:55 Mostly Cloudy 77 25 58 14.3 51 51 NE 7 11 29.95 1014 10 16 0.00 0.00
10:15 pm 22:15 Partly Cloudy 77 24.8 54 12.3 46 46 NE 7 11 29.97 1015 10 16 0.00 0.00
10:35 pm 22:35 Clear 74 23.5 54 12.3 49 49 NNE 6 9 29.99 1015 10 16 0.00 0.00
10:55 pm 22:55 Clear 73 22.8 55 12.8 53 53 NE 5 7 29.99 1016 10 16 0.00 0.00
11:15 pm 23:15 Clear 70 21.2 56 13.2 60 60 NE 3 6 29.99 1016 10 16 0.00 0.00
11:35 pm 23:35 Clear 69 20.6 55 13 62 62 NE 5 7 30.00 1016 10 16 0.00 0.00
11:55 pm 23:55 Clear 72 22 53 11.5 51 51 NE 7 11 30.01 1016 10 16 0.00 0.00

Powered by Vaisala Xweather